This is the latest recevied weather packets stored in our database for station/object KE5VT. If no packets are shown the sender has not sent any weather packets the latest 10 day(s).
| Time | Temp. | Humidity | Pressure | Rain* | Wind** | Luminosity | Snow |
|---|---|---|---|---|---|---|---|
| 1778105689 | 25° C | 67% | 1008.7 hPa | 0 mm | - | 86 W/m² | - |
| 1778105388 | 25° C | 67% | 1008.8 hPa | 0 mm | - | 87 W/m² | - |
| 1778105088 | 25° C | 67% | 1008.7 hPa | 0 mm | - | 83 W/m² | - |
| 1778104785 | 25° C | 66% | 1008.8 hPa | 0 mm | - | 90 W/m² | - |
| 1778104481 | 25° C | 67% | 1008.8 hPa | 0 mm | - | 98 W/m² | - |
| 1778104182 | 25° C | 67% | 1008.6 hPa | 0 mm | - | 100 W/m² | - |
| 1778103879 | 25° C | 67% | 1008.4 hPa | 0 mm | - | 99 W/m² | - |
| 1778103577 | 25° C | 66% | 1008.8 hPa | 0 mm | - | 89 W/m² | - |
| 1778103274 | 25.56° C | 65% | 1008.9 hPa | 0 mm | - | 122 W/m² | - |
| 1778102971 | 26.11° C | 64% | 1008.8 hPa | 0 mm | - | 182 W/m² | - |
| 1778102667 | 25.56° C | 64% | 1008.7 hPa | 0 mm | - | 134 W/m² | - |
| 1778102362 | 25.56° C | 65% | 1009 hPa | 0 mm | - | 303 W/m² | - |
| 1778102058 | 25.56° C | 64% | 1008.9 hPa | 0 mm | - | 194 W/m² | - |
| 1778101756 | 25.56° C | 64% | 1008.9 hPa | 0 mm | - | 194 W/m² | - |
| 1778101452 | 25.56° C | 64% | 1008.8 hPa | 0 mm | - | 193 W/m² | - |
| 1778101150 | 25.56° C | 65% | 1008.6 hPa | 0 mm | - | 248 W/m² | - |
| 1778100845 | 25.56° C | 64% | 1008.8 hPa | 0 mm | - | 184 W/m² | - |
| 1778100542 | 25.56° C | 63% | 1008.9 hPa | 0 mm | - | 246 W/m² | - |
| 1778100240 | 26.67° C | 62% | 1008.8 hPa | 0 mm | - | 472 W/m² | - |
| 1778099937 | 25.56° C | 62% | 1008.8 hPa | 0 mm | - | 134 W/m² | - |
| 1778099634 | 26.11° C | 62% | 1008.8 hPa | 0 mm | - | 406 W/m² | - |
| 1778099331 | 25.56° C | 62% | 1008.9 hPa | 0 mm | - | 377 W/m² | - |
| 1778099028 | 25.56° C | 63% | 1008.8 hPa | 0 mm | - | 124 W/m² | - |
| 1778098725 | 25.56° C | 64% | 1009 hPa | 0 mm | - | 106 W/m² | - |
| 1778098422 | 25.56° C | 63% | 1008.9 hPa | 0 mm | - | 264 W/m² | - |
* Rain latest hour (hover to see other rain measurements)
** Current wind speed in m/s (hover to see current wind gust speed)